Regional Weather Roundup
Issued by NWS Bismarck, ND

Home | Current Version | Previous Version | Text Only | Print | Product List | Glossary On
Versions: 1 2 3 4 5 6 7 8 9 10 11 12 13 14 15 16 17 18 19 20 21 22 23 24 25 26 27 28 29 30 31 32 33 34 35 36 37 38 39 40 41 42 43 44 45 46 47 48 49 50
000
ASUS43 KBIS 301610
RWRBIS

NWR BROADCAST TEXT
NATIONAL WEATHER SERVICE BISMARCK ND
1100 AM CDT MON MAY 30 2016

NOTE: "FAIR" INDICATES FEW OR NO CLOUDS BELOW 12,000 FEET WITH NO
SIGNIFICANT WEATHER AND/OR OBSTRUCTIONS TO VISIBILITY.


CITY           SKY/WX    TMP DP  RH WIND       PRES   REMARKS
WILLISTON      CLOUDY    59  46  62 SW6       29.93S
MINOT          CLOUDY    73  54  51 NE5       29.88S
MINOT AFB      CLOUDY    69  52  55 E6        29.87F
BISMARCK       SUNNY     72  57  59 SE7       29.88F
DICKINSON      CLOUDY    57  49  74 NE16      29.86F
GARRISON         N/A     65  51  60 CALM      29.89F
HETTINGER ARPT PTSUNNY   66  55  67 SW14      29.92R
JAMESTOWN      SUNNY     76  56  49 S7        29.89F
BEACH          PTSUNNY   54  54 100 N13       29.97F
CARRINGTON     FAIR      77  52  41 SW8       29.91F
HAZEN          FAIR      68  55  64 NW3       29.90F
LINTON         FAIR      73  63  68 SE13        N/A
MANDAN         FAIR      72  57  60 S7        29.89F
OAKES            N/A    N/A N/A N/A MISG        N/A
RUGBY          FAIR      73  50  43 NE5       29.89F
STANLEY        FAIR      63  61  94 CALM      29.92F
WATFORD CITY   LGT RAIN  55  55 100 N5        29.92F
$$

CITY           SKY/WX    TMP DP  RH WIND       PRES   REMARKS
GRAND FORKS    PTSUNNY   70  54  56 SE7       29.90F
GRAND FORKS AF PTSUNNY   72  54  52 S7        29.90S
DEVILS LAKE    SUNNY     72  55  55 SW6       29.90F
FARGO          SUNNY     78  53  41 S8        29.91F
CAVALIER       FAIR      73  50  43 S6        29.90S
GRAFTON        FAIR      73  54  49 S8        29.91F
GWINNER        FAIR      77  55  47 S9        29.92F
LANGDON        FAIR      75  54  46 SW7       29.92S
ROLLA            N/A     73  37  27 NW6       29.92S
WALHALLA       FAIR      72  68  88 NE7       29.90S
$$

CITY           SKY/WX    TMP DP  RH WIND       PRES   REMARKS
ABERDEEN       CLOUDY    77  55  46 S3        29.91F
MOBRIDGE       CLOUDY    73  58  59 S13       29.84F
BUFFALO          N/A     66  55  67 NE10      29.82F
RAPID CITY     CLOUDY    69  56  62 SE6       29.85F
GLASGOW        PTSUNNY   60  49  66 SW6       29.93R
SIDNEY         RAIN      56  53  90 CALM      29.95R
WOLF POINT     LGT RAIN  60  54  80 S5        29.94R
GLENDIVE       CLOUDY    55  52  88 N6        29.97R
MILES CITY     CLOUDY    59  51  75 NE8       29.93F
BAKER          CLOUDY    57  53  86 N13       29.95F
$$

CITY           SKY/WX    TMP DP  RH WIND       PRES   REMARKS
BILLINGS       PTSUNNY   61  40  45 W10       30.01F
GREAT FALLS    CLOUDY    48  40  73 NW13      30.12R
REGINA         CLOUDY    64  46  52 E6        29.87F
ESTEVAN        CLOUDY    66  48  52 SW6       29.90R
$$





USA.gov is the U.S. government's official web portal to all federal, state and local government web resources and services.